When you browse on this site, cookies collect data to enhance your experience and personalize the content and advertising you see.
Visit our Privacy Policy to learn more. By continuing to use the site, you agree to this use of cookies and data.
  • In France
  • List of Countries
  • For 7 days
  • Water Temperature
  • Satellite Maps
  • Weather Map
  • Weather Widgets
  • user-avatar
    Login

    Hourly Weather San Miguel de Tucumán

    Today, 18 November, Sunday

    Time Temperature Precipitation Wind Pressure Humidity
    00:00 +25°C° 2 mm 3 mps 718 mmHg 86%
    01:00 +23°C° 2 mm 4 mps 719 mmHg 87%
    02:00 +23°C° 0 mm 4 mps 720 mmHg 88%
    03:00 +22°C° 1.6 mm 4 mps 720 mmHg 89%
    04:00 +21°C° 1.6 mm 4 mps 721 mmHg 89%
    05:00 +20°C° 1.6 mm 3 mps 722 mmHg 90%
    06:00 +20°C° 0.5 mm 3 mps 722 mmHg 87%
    07:00 +20°C° 0.5 mm 3 mps 723 mmHg 84%
    08:00 +19°C° 0.5 mm 2 mps 724 mmHg 82%
    09:00 +20°C° 0 mm 2 mps 724 mmHg 74%
    10:00 +21°C° 0 mm 2 mps 724 mmHg 67%
    11:00 +23°C° 0 mm 2 mps 725 mmHg 59%
    12:00 +25°C° 0 mm 2 mps 724 mmHg 55%
    13:00 +26°C° 0 mm 2 mps 723 mmHg 51%
    14:00 +27°C° 0 mm 2 mps 723 mmHg 47%
    15:00 +27°C° 0 mm 2 mps 722 mmHg 48%
    16:00 +27°C° 0 mm 2 mps 721 mmHg 49%
    17:00 +26°C° 0 mm 2 mps 721 mmHg 50%
    18:00 +25°C° 0 mm 2 mps 721 mmHg 55%
    19:00 +23°C° 0 mm 1 mps 722 mmHg 59%
    20:00 +22°C° 0 mm 1 mps 722 mmHg 64%
    21:00 +22°C° 0 mm 1 mps 722 mmHg 65%
    22:00 +21°C° 0 mm 1 mps 723 mmHg 65%
    23:00 +21°C° 0 mm 1 mps 723 mmHg 66%

    Tomorrow, 19 November, Monday

    Time Temperature Precipitation Wind Pressure Humidity
    00:00 +21°C° 0 mm 1 mps 723 mmHg 67%
    01:00 +20°C° 0 mm 1 mps 722 mmHg 68%
    02:00 +20°C° 0 mm 1 mps 721 mmHg 69%
    03:00 +20°C° 0 mm 1 mps 721 mmHg 71%
    04:00 +20°C° 0 mm 1 mps 721 mmHg 72%
    05:00 +19°C° 0 mm 1 mps 720 mmHg 73%
    06:00 +20°C° 0 mm 2 mps 721 mmHg 69%
    07:00 +21°C° 0 mm 2 mps 721 mmHg 64%
    08:00 +24°C° 0 mm 2 mps 721 mmHg 60%
    09:00 +26°C° 0 mm 3 mps 721 mmHg 56%
    10:00 +28°C° 0 mm 3 mps 721 mmHg 53%
    11:00 +29°C° 0 mm 3 mps 721 mmHg 49%
    12:00 +30°C° 0 mm 4 mps 720 mmHg 48%
    13:00 +32°C° 0 mm 4 mps 719 mmHg 47%
    14:00 +33°C° 0 mm 4 mps 718 mmHg 46%
    15:00 +32°C° 0 mm 4 mps 718 mmHg 48%
    16:00 +31°C° 0 mm 3 mps 717 mmHg 51%
    17:00 +31°C° 0 mm 3 mps 717 mmHg 53%
    18:00 +29°C° 0 mm 3 mps 717 mmHg 58%
    19:00 +28°C° 0 mm 2 mps 718 mmHg 64%
    20:00 +26°C° 0 mm 2 mps 719 mmHg 69%
    21:00 +26°C° 0 mm 2 mps 719 mmHg 70%
    22:00 +25°C° 0 mm 2 mps 719 mmHg 70%
    23:00 +25°C° 0 mm 2 mps 720 mmHg 71%

    Day after tomorrow, 20 November, Tuesday

    Time Temperature Precipitation Wind Pressure Humidity
    00:00 +25°C° 0 mm 2 mps 719 mmHg 71%
    01:00 +24°C° 0 mm 2 mps 719 mmHg 71%
    02:00 +24°C° 0 mm 2 mps 718 mmHg 72%
    03:00 +23°C° 0 mm 2 mps 718 mmHg 71%
    04:00 +23°C° 0 mm 2 mps 718 mmHg 70%
    05:00 +21°C° 0 mm 2 mps 718 mmHg 70%
    06:00 +24°C° 0 mm 2 mps 719 mmHg 65%
    07:00 +25°C° 0 mm 2 mps 719 mmHg 60%
    08:00 +27°C° 0 mm 2 mps 720 mmHg 55%
    09:00 +29°C° 0 mm 2 mps 720 mmHg 52%
    10:00 +31°C° 0 mm 2 mps 720 mmHg 49%
    11:00 +34°C° 0 mm 2 mps 720 mmHg 45%
    12:00 +34°C° 0 mm 2 mps 719 mmHg 44%
    13:00 +35°C° 0 mm 3 mps 719 mmHg 44%
    14:00 +36°C° 0 mm 3 mps 718 mmHg 43%
    15:00 +35°C° 0 mm 3 mps 718 mmHg 46%
    16:00 +35°C° 0 mm 2 mps 717 mmHg 48%
    17:00 +34°C° 0 mm 2 mps 717 mmHg 51%
    18:00 +32°C° 0 mm 2 mps 717 mmHg 55%
    19:00 +30°C° 0 mm 1 mps 717 mmHg 60%
    20:00 +29°C° 0 mm 1 mps 718 mmHg 65%
    21:00 +28°C° 0 mm 1 mps 718 mmHg 65%
    22:00 +28°C° 0 mm 1 mps 719 mmHg 66%
    23:00 +28°C° 0 mm 1 mps 719 mmHg 67%

    21 November, Wednesday

    Time Temperature Precipitation Wind Pressure Humidity
    00:00 +27°C° 0 mm 1 mps 719 mmHg 67%
    01:00 +27°C° 0 mm 2 mps 718 mmHg 68%
    02:00 +26°C° 0 mm 2 mps 717 mmHg 69%
    03:00 +26°C° 0 mm 1 mps 717 mmHg 69%
    04:00 +25°C° 0 mm 1 mps 717 mmHg 70%
    05:00 +25°C° 0 mm 1 mps 717 mmHg 71%
    06:00 +26°C° 0 mm 1 mps 717 mmHg 66%
    07:00 +28°C° 0 mm 1 mps 718 mmHg 60%
    08:00 +30°C° 0 mm 1 mps 718 mmHg 55%
    09:00 +32°C° 0 mm 2 mps 718 mmHg 51%
    10:00 +35°C° 0 mm 2 mps 718 mmHg 46%
    11:00 +37°C° 0 mm 3 mps 717 mmHg 41%
    12:00 +37°C° 0 mm 3 mps 717 mmHg 40%
    13:00 +38°C° 0 mm 3 mps 716 mmHg 39%
    14:00 +39°C° 0 mm 3 mps 715 mmHg 37%
    15:00 +38°C° 0.2 mm 3 mps 715 mmHg 41%
    16:00 +37°C° 0.2 mm 3 mps 714 mmHg 44%
    17:00 +36°C° 0.2 mm 2 mps 713 mmHg 47%
    18:00 +35°C° 0.6 mm 2 mps 714 mmHg 53%
    19:00 +32°C° 0.6 mm 2 mps 714 mmHg 59%
    20:00 +31°C° 0.6 mm 2 mps 715 mmHg 65%
    21:00 +30°C° 0.4 mm 2 mps 715 mmHg 66%
    22:00 +29°C° 0.4 mm 2 mps 715 mmHg 67%
    23:00 +29°C° 0.4 mm 2 mps 716 mmHg 68%

    22 November, Thursday

    Time Temperature Precipitation Wind Pressure Humidity
    00:00 +29°C° 0.1 mm 2 mps 715 mmHg 68%
    01:00 +28°C° 0.1 mm 2 mps 714 mmHg 69%
    02:00 +28°C° 0.1 mm 2 mps 714 mmHg 69%
    03:00 +28°C° 0 mm 2 mps 714 mmHg 69%
    04:00 +27°C° 0 mm 2 mps 714 mmHg 70%
    05:00 +27°C° 0 mm 1 mps 714 mmHg 70%
    06:00 +28°C° 0 mm 1 mps 715 mmHg 65%
    07:00 +30°C° 0 mm 1 mps 715 mmHg 61%
    08:00 +32°C° 0 mm 1 mps 716 mmHg 56%
    09:00 +33°C° 0.3 mm 1 mps 716 mmHg 51%
    10:00 +35°C° 0.3 mm 1 mps 716 mmHg 45%
    11:00 +38°C° 0.3 mm 2 mps 716 mmHg 39%
    12:00 +38°C° 0.3 mm 2 mps 716 mmHg 39%
    13:00 +38°C° 0.3 mm 2 mps 716 mmHg 39%
    14:00 +38°C° 0.3 mm 2 mps 716 mmHg 39%
    15:00 +34°C° 3.2 mm 3 mps 716 mmHg 55%
    16:00 +30°C° 3.2 mm 5 mps 716 mmHg 71%
    17:00 +26°C° 3.2 mm 6 mps 716 mmHg 86%
    18:00 +25°C° 0.5 mm 5 mps 717 mmHg 87%
    19:00 +25°C° 0.5 mm 4 mps 719 mmHg 87%
    20:00 +24°C° 0.5 mm 3 mps 720 mmHg 87%
    21:00 +24°C° 0.2 mm 3 mps 720 mmHg 88%
    22:00 +22°C° 0.2 mm 3 mps 721 mmHg 89%
    23:00 +22°C° 0.2 mm 3 mps 722 mmHg 90%

    23 November, Friday

    Time Temperature Precipitation Wind Pressure Humidity
    00:00 +23°C° 0.1 mm 2 mps 722 mmHg 90%
    01:00 +23°C° 0.1 mm 2 mps 721 mmHg 90%
    02:00 +21°C° 0.1 mm 2 mps 721 mmHg 90%
    03:00 +21°C° 0.1 mm 2 mps 721 mmHg 90%
    04:00 +21°C° 0.1 mm 2 mps 721 mmHg 90%
    05:00 +20°C° 0.1 mm 2 mps 721 mmHg 91%
    06:00 +20°C° 0 mm 2 mps 722 mmHg 88%
    07:00 +21°C° 0 mm 2 mps 722 mmHg 86%
    08:00 +22°C° 0 mm 1 mps 722 mmHg 84%
    09:00 +22°C° 0 mm 1 mps 722 mmHg 81%
    10:00 +23°C° 0 mm 1 mps 722 mmHg 78%
    11:00 +24°C° 0 mm 1 mps 721 mmHg 75%
    12:00 +25°C° 0 mm 2 mps 721 mmHg 71%
    13:00 +26°C° 0 mm 2 mps 720 mmHg 68%
    14:00 +27°C° 0 mm 2 mps 719 mmHg 64%
    15:00 +27°C° 0 mm 2 mps 719 mmHg 65%
    16:00 +27°C° 0 mm 2 mps 718 mmHg 66%
    17:00 +27°C° 0 mm 2 mps 718 mmHg 66%
    18:00 +26°C° 0 mm 2 mps 718 mmHg 72%
    19:00 +24°C° 0 mm 1 mps 719 mmHg 77%
    20:00 +23°C° 0 mm 1 mps 719 mmHg 83%
    21:00 +23°C° 0 mm 1 mps 719 mmHg 84%
    22:00 +23°C° 0 mm 1 mps 720 mmHg 85%
    23:00 +22°C° 0 mm 1 mps 720 mmHg 86%
    Show more